Weather in Saprino

Russia / Voronezh Oblast     50°22′32″N   39°53′01″E
temp.,
°C
wind,
m/s
gust,
m/s
humid.,
%
clouds,
%
prec.,
mm/h
press.,
hPa
HPBL,
m
21 june, mon
mon2100:00+19e4136499 0.0 1018271
03:00+19e4126011 0.0 1018244
06:00+18e3874100 0.0 1019165
09:00+24ese485797 0.0 1019364
12:00+28ese684423 0.0 1019924
15:00+29ese58465 0.0 10181342
18:00+28e49595 0.0 1017321
21:00+22ene410765 0.0 1018153
22 june, tue
tue2200:00+20e413714 0.0 1018240
03:00+20e414694 0.0 1018281
06:00+20e413756 0.0 1019292
09:00+26ese61160100 0.0 1019542
12:00+30ese685192 0.0 10191052
15:00+32e684814 0.0 10181923
18:00+29ene510616 0.0 1017436
21:00+24ene513705 0.0 1018255
23 june, wed
wed2300:00+23ene4136613 0.0 1018254
03:00+21ene4117081 0.0 1018200
06:00+21ene4117297 0.0 1017240
09:00+26e465597 0.0 1018438
12:00+30e4547100 0.0 1018811
15:00+31e3446100 0.0 10181011
18:00+28ene3666100 0.0 1017239
21:00+24ene357391 0.0 101878
24 june, thu
thu2400:00+22ene36715 0.0 101892
03:00+21ene36715 0.0 101899
06:00+21ene28785 0.8 1019206
09:00+27ene57595 0.8 1019417
12:00+31e574512 0.0 10181038
15:00+32ene5643100 0.0 10181460
18:00+29ne4861100 0.0 1017301
21:00+25ne357194 0.0 101765
25 june, fri
fri2500:00+23ne347621 0.0 101760
03:00+21ne33829 0.0 101746
06:00+22ne37825 0.1 1017190
09:00+28e57615 0.1 1016554
12:00+31e56507 0.0 10161256
15:00+32e45462 0.0 10151934
18:00+30ene46580 0.0 1015332
21:00+25ene357023 0.0 101475